When you browse on this site, cookies collect data to enhance your experience and personalize the content and advertising you see.
Visit our Privacy Policy to learn more. By continuing to use the site, you agree to this use of cookies and data.
  • In Switzerland
  • List of Countries
  • For 7 days
  • Water Temperature
  • Satellite Maps
  • Weather Map
  • Weather Widgets
  • user-avatar
    Login

    Hourly Weather Albany

    Today, 10 December, Monday

    Time Temperature Precipitation Wind Pressure Humidity
    00:00 +15°C° 0 mm 4 mps 758 mmHg 88%
    01:00 +15°C° 0 mm 4 mps 758 mmHg 90%
    02:00 +14°C° 0 mm 3 mps 757 mmHg 92%
    03:00 +14°C° 0 mm 3 mps 757 mmHg 93%
    04:00 +14°C° 0 mm 3 mps 757 mmHg 94%
    05:00 +14°C° 0 mm 3 mps 757 mmHg 94%
    06:00 +17°C° 0 mm 3 mps 756 mmHg 86%
    07:00 +19°C° 0 mm 3 mps 756 mmHg 78%
    08:00 +21°C° 0 mm 3 mps 756 mmHg 70%
    09:00 +22°C° 0 mm 3 mps 756 mmHg 65%
    10:00 +25°C° 0 mm 3 mps 755 mmHg 60%
    11:00 +26°C° 0 mm 3 mps 755 mmHg 55%
    12:00 +26°C° 0 mm 3 mps 755 mmHg 56%
    13:00 +26°C° 0 mm 4 mps 754 mmHg 57%
    14:00 +26°C° 0 mm 4 mps 754 mmHg 58%
    15:00 +25°C° 0 mm 5 mps 754 mmHg 62%
    16:00 +22°C° 0 mm 5 mps 754 mmHg 66%
    17:00 +21°C° 0 mm 6 mps 754 mmHg 70%
    18:00 +20°C° 0 mm 6 mps 754 mmHg 75%
    19:00 +19°C° 0 mm 5 mps 754 mmHg 79%
    20:00 +17°C° 0 mm 5 mps 754 mmHg 84%
    21:00 +17°C° 0 mm 4 mps 754 mmHg 83%
    22:00 +17°C° 0 mm 3 mps 754 mmHg 82%
    23:00 +17°C° 0 mm 2 mps 755 mmHg 80%

    Tomorrow, 11 December, Tuesday

    Time Temperature Precipitation Wind Pressure Humidity
    00:00 +17°C° 0 mm 3 mps 754 mmHg 82%
    01:00 +16°C° 0 mm 3 mps 754 mmHg 83%
    02:00 +16°C° 0 mm 3 mps 754 mmHg 85%
    03:00 +14°C° 0 mm 4 mps 754 mmHg 85%
    04:00 +14°C° 0 mm 4 mps 754 mmHg 85%
    05:00 +13°C° 0 mm 5 mps 754 mmHg 85%
    06:00 +15°C° 0 mm 5 mps 754 mmHg 77%
    07:00 +17°C° 0 mm 5 mps 754 mmHg 70%
    08:00 +19°C° 0 mm 5 mps 754 mmHg 62%
    09:00 +21°C° 0 mm 6 mps 754 mmHg 56%
    10:00 +22°C° 0 mm 6 mps 754 mmHg 50%
    11:00 +24°C° 0 mm 6 mps 754 mmHg 44%
    12:00 +26°C° 0 mm 6 mps 754 mmHg 43%
    13:00 +26°C° 0 mm 7 mps 753 mmHg 43%
    14:00 +27°C° 0 mm 8 mps 753 mmHg 43%
    15:00 +26°C° 0 mm 8 mps 753 mmHg 49%
    16:00 +24°C° 0 mm 9 mps 753 mmHg 54%
    17:00 +23°C° 0 mm 9 mps 753 mmHg 59%
    18:00 +22°C° 0.1 mm 8 mps 754 mmHg 66%
    19:00 +20°C° 0.1 mm 7 mps 754 mmHg 72%
    20:00 +19°C° 0.1 mm 6 mps 755 mmHg 78%
    21:00 +19°C° 0.1 mm 6 mps 755 mmHg 79%
    22:00 +17°C° 0.1 mm 6 mps 756 mmHg 81%
    23:00 +17°C° 0.1 mm 5 mps 756 mmHg 82%

    Day after tomorrow, 12 December, Wednesday

    Time Temperature Precipitation Wind Pressure Humidity
    00:00 +16°C° 0.1 mm 5 mps 756 mmHg 82%
    01:00 +16°C° 0.1 mm 5 mps 756 mmHg 81%
    02:00 +16°C° 0.1 mm 5 mps 756 mmHg 80%
    03:00 +15°C° 0 mm 5 mps 757 mmHg 79%
    04:00 +15°C° 0 mm 5 mps 757 mmHg 78%
    05:00 +14°C° 0 mm 5 mps 757 mmHg 77%
    06:00 +15°C° 0 mm 4 mps 758 mmHg 73%
    07:00 +17°C° 0 mm 4 mps 759 mmHg 69%
    08:00 +17°C° 0 mm 4 mps 759 mmHg 65%
    09:00 +17°C° 0 mm 4 mps 760 mmHg 66%
    10:00 +17°C° 0 mm 4 mps 760 mmHg 66%
    11:00 +17°C° 0 mm 4 mps 760 mmHg 66%
    12:00 +18°C° 0 mm 4 mps 760 mmHg 63%
    13:00 +18°C° 0 mm 4 mps 760 mmHg 60%
    14:00 +19°C° 0 mm 4 mps 760 mmHg 57%
    15:00 +19°C° 0 mm 4 mps 760 mmHg 57%
    16:00 +18°C° 0 mm 4 mps 761 mmHg 58%
    17:00 +17°C° 0 mm 5 mps 761 mmHg 58%
    18:00 +17°C° 0 mm 4 mps 761 mmHg 62%
    19:00 +15°C° 0 mm 4 mps 762 mmHg 67%
    20:00 +13°C° 0 mm 4 mps 762 mmHg 71%
    21:00 +13°C° 0 mm 4 mps 762 mmHg 73%
    22:00 +13°C° 0 mm 4 mps 763 mmHg 74%
    23:00 +12°C° 0 mm 4 mps 763 mmHg 76%

    13 December, Thursday

    Time Temperature Precipitation Wind Pressure Humidity
    00:00 +12°C° 0 mm 4 mps 763 mmHg 77%
    01:00 +12°C° 0 mm 4 mps 762 mmHg 79%
    02:00 +12°C° 0 mm 4 mps 762 mmHg 80%
    03:00 +12°C° 0 mm 4 mps 762 mmHg 81%
    04:00 +11°C° 0 mm 4 mps 762 mmHg 83%
    05:00 +11°C° 0 mm 4 mps 762 mmHg 84%
    06:00 +13°C° 0 mm 5 mps 762 mmHg 76%
    07:00 +15°C° 0 mm 5 mps 762 mmHg 68%
    08:00 +17°C° 0 mm 6 mps 762 mmHg 61%
    09:00 +20°C° 0 mm 6 mps 762 mmHg 55%
    10:00 +21°C° 0 mm 6 mps 761 mmHg 49%
    11:00 +23°C° 0 mm 6 mps 761 mmHg 43%
    12:00 +24°C° 0 mm 6 mps 760 mmHg 42%
    13:00 +26°C° 0 mm 6 mps 760 mmHg 40%
    14:00 +27°C° 0 mm 6 mps 759 mmHg 39%
    15:00 +26°C° 0 mm 7 mps 759 mmHg 44%
    16:00 +24°C° 0 mm 7 mps 759 mmHg 48%
    17:00 +23°C° 0 mm 7 mps 759 mmHg 53%
    18:00 +21°C° 0 mm 7 mps 759 mmHg 60%
    19:00 +18°C° 0 mm 7 mps 759 mmHg 67%
    20:00 +17°C° 0 mm 7 mps 759 mmHg 74%
    21:00 +16°C° 0 mm 6 mps 759 mmHg 76%
    22:00 +16°C° 0 mm 6 mps 759 mmHg 78%
    23:00 +16°C° 0 mm 6 mps 759 mmHg 80%

    14 December, Friday

    Time Temperature Precipitation Wind Pressure Humidity
    00:00 +15°C° 0 mm 5 mps 758 mmHg 82%
    01:00 +15°C° 0 mm 5 mps 758 mmHg 84%
    02:00 +15°C° 0 mm 5 mps 757 mmHg 86%
    03:00 +15°C° 0 mm 4 mps 757 mmHg 87%
    04:00 +15°C° 0 mm 4 mps 757 mmHg 88%
    05:00 +15°C° 0 mm 4 mps 757 mmHg 89%
    06:00 +18°C° 0 mm 4 mps 757 mmHg 76%
    07:00 +21°C° 0 mm 3 mps 757 mmHg 64%
    08:00 +24°C° 0 mm 3 mps 758 mmHg 51%
    09:00 +26°C° 0 mm 3 mps 757 mmHg 45%
    10:00 +29°C° 0 mm 3 mps 757 mmHg 39%
    11:00 +31°C° 0 mm 3 mps 757 mmHg 33%
    12:00 +32°C° 0 mm 4 mps 756 mmHg 35%
    13:00 +32°C° 0 mm 4 mps 756 mmHg 36%
    14:00 +32°C° 0 mm 5 mps 756 mmHg 38%
    15:00 +29°C° 0 mm 5 mps 756 mmHg 43%
    16:00 +28°C° 0 mm 6 mps 756 mmHg 48%
    17:00 +26°C° 0 mm 6 mps 755 mmHg 54%
    18:00 +23°C° 0 mm 5 mps 756 mmHg 61%
    19:00 +22°C° 0 mm 5 mps 756 mmHg 69%
    20:00 +20°C° 0 mm 4 mps 756 mmHg 76%
    21:00 +19°C° 0 mm 4 mps 756 mmHg 78%
    22:00 +19°C° 0 mm 4 mps 756 mmHg 80%
    23:00 +19°C° 0 mm 4 mps 756 mmHg 82%

    15 December, Saturday

    Time Temperature Precipitation Wind Pressure Humidity
    00:00 +19°C° 0 mm 4 mps 756 mmHg 83%
    01:00 +18°C° 0 mm 4 mps 756 mmHg 84%
    02:00 +18°C° 0 mm 3 mps 755 mmHg 85%
    03:00 +19°C° 0 mm 4 mps 755 mmHg 84%
    04:00 +19°C° 0 mm 4 mps 755 mmHg 84%
    05:00 +19°C° 0 mm 5 mps 755 mmHg 84%
    06:00 +19°C° 0.1 mm 5 mps 756 mmHg 83%
    07:00 +20°C° 0.1 mm 5 mps 756 mmHg 82%
    08:00 +20°C° 0.1 mm 5 mps 756 mmHg 81%
    09:00 +21°C° 0.1 mm 5 mps 756 mmHg 78%
    10:00 +21°C° 0.1 mm 4 mps 756 mmHg 76%
    11:00 +22°C° 0.1 mm 4 mps 755 mmHg 73%
    12:00 +22°C° 0.2 mm 4 mps 755 mmHg 73%
    13:00 +22°C° 0.2 mm 5 mps 755 mmHg 72%
    14:00 +22°C° 0.2 mm 5 mps 755 mmHg 72%
    15:00 +21°C° 0.6 mm 5 mps 756 mmHg 77%
    16:00 +20°C° 0.6 mm 5 mps 756 mmHg 81%
    17:00 +19°C° 0.6 mm 5 mps 756 mmHg 86%
    18:00 +19°C° 0.2 mm 5 mps 757 mmHg 87%
    19:00 +19°C° 0.2 mm 5 mps 757 mmHg 89%
    20:00 +17°C° 0.2 mm 6 mps 757 mmHg 90%
    21:00 +17°C° 0.1 mm 6 mps 757 mmHg 90%
    22:00 +17°C° 0.1 mm 6 mps 757 mmHg 89%
    23:00 +17°C° 0.1 mm 6 mps 757 mmHg 89%
    Show more